period_start,C,m1,H,J0,J1,J2,J3,J4,J5,JA,JB,JC,JD,JJ,JK,JN,#
2016-07-09 00:02:17,0.00,0.01,0.00,19.47,25.65,29.33,14.70,46.96,1006.36,2045.99,3584.99,3155.06,3582.99,600.05,597.22,1.20,0000 0000 0000 0000 000000
2016-07-09 00:07:18,-0.00,0.01,0.00,19.48,25.64,29.33,14.66,46.86,1006.35,2046.00,3584.99,3155.17,3582.99,600.07,597.20,1.25,0000 0000 0000 0000 000000
2016-07-09 00:12:19,-0.01,0.01,0.00,19.48,25.62,29.33,14.64,46.70,1006.34,2046.02,3584.99,3155.59,3583.00,600.05,597.15,1.30,0000 0000 0000 0000 000000
2016-07-09 00:17:21,-0.00,0.01,0.00,19.44,25.61,29.33,14.66,46.74,1006.29,2046.05,3585.00,3155.83,3583.00,599.92,597.09,1.35,0000 0000 0000 0000 000000
2016-07-09 00:22:22,0.00,0.01,0.00,19.40,25.60,29.32,14.73,46.98,1006.24,2046.09,3585.01,3155.92,3583.00,600.17,597.49,1.40,0000 0000 0000 0000 000000
2016-07-09 00:27:23,0.01,0.01,0.00,19.35,25.57,29.31,14.72,46.92,1006.30,2046.21,3585.04,3155.97,3583.02,600.12,597.48,1.45,0000 0000 0000 0000 000000
2016-07-09 00:32:24,0.03,0.01,0.00,19.37,25.57,29.30,14.70,46.95,1006.35,2046.66,3585.13,3155.99,3583.06,600.12,597.44,1.50,0000 0000 0000 0000 000000
2016-07-09 00:37:25,0.01,0.01,0.00,19.34,25.55,29.27,14.64,46.92,1006.34,2046.73,3585.34,3155.99,3583.13,599.75,597.14,1.55,0000 0000 0000 0000 000000
2016-07-09 00:42:26,-0.00,0.01,0.00,19.34,25.54,29.26,14.70,46.85,1006.21,2046.95,3585.72,3155.99,3583.37,600.10,597.42,1.60,0000 0000 0000 0000 000000
2016-07-09 00:47:28,0.01,0.01,0.00,19.36,25.52,29.18,14.68,46.87,1006.11,2046.97,3585.61,3155.99,3583.37,600.01,597.18,1.65,0000 0000 0000 0000 000000
2016-07-09 00:52:29,0.00,0.01,0.00,19.34,25.52,29.22,14.67,46.98,1006.08,2046.96,3585.09,3155.99,3583.03,600.33,597.55,1.70,0000 0000 0000 0000 000000
2016-07-09 00:57:31,-0.00,0.01,0.00,19.35,25.50,29.19,14.75,46.96,1006.03,2046.97,3585.26,3155.99,3583.08,600.03,597.23,1.75,0000 0000 0000 0000 000000
2016-07-09 01:02:32,-0.00,0.01,0.00,19.31,25.50,29.20,14.74,46.86,1005.91,2046.99,3585.48,3155.99,3583.20,600.11,597.20,1.80,0000 0000 0000 0000 000000
2016-07-09 01:07:33,0.00,0.01,0.00,19.32,25.48,29.19,14.60,46.85,1005.89,2046.99,3585.66,3156.00,3583.32,599.84,597.04,1.85,0000 0000 0000 0000 000000
2016-07-09 01:12:35,0.01,0.01,0.00,19.33,25.47,29.18,14.70,46.84,1005.89,2046.99,3585.31,3156.00,3583.21,599.90,597.10,1.91,0000 0000 0000 0000 000000
2016-07-09 01:17:36,-0.01,0.01,0.00,19.30,25.47,29.14,14.65,46.90,1005.88,2046.99,3585.49,3156.01,3583.32,599.71,596.95,1.96,0000 0000 0000 0000 000000
2016-07-09 01:22:37,-0.01,0.01,0.00,19.30,25.45,29.12,14.67,46.83,1005.88,2046.99,3585.79,3156.02,3583.58,599.84,597.01,2.01,0000 0000 0000 0000 000000
2016-07-09 01:27:38,0.01,0.01,0.00,19.33,25.45,29.12,14.71,47.03,1005.87,2046.99,3585.83,3156.01,3583.45,599.89,597.03,2.06,0000 0000 0000 0000 000000
2016-07-09 01:32:39,-0.00,0.01,0.00,19.34,25.44,29.16,14.66,46.97,1005.87,2046.99,3585.77,3156.02,3583.34,600.07,597.15,2.11,0000 0000 0000 0000 000000
2016-07-09 01:37:40,0.00,0.01,0.00,19.29,25.42,29.15,14.72,47.00,1005.87,2046.99,3585.79,3156.03,3583.42,599.88,597.14,2.16,0000 0000 0000 0000 000000
2016-07-09 01:42:42,0.00,0.01,0.00,19.26,25.42,29.13,14.64,46.91,1005.87,2046.99,3585.59,3156.03,3583.39,599.93,597.29,2.21,0000 0000 0000 0000 000000
2016-07-09 01:47:43,-0.01,0.01,0.00,19.26,25.42,29.11,14.63,46.90,1005.87,2046.99,3585.89,3156.07,3583.70,599.95,597.27,2.26,0000 0000 0000 0000 000000
2016-07-09 01:52:44,0.00,0.01,0.00,19.24,25.41,29.12,14.70,47.07,1005.87,2046.99,3585.85,3156.07,3583.54,600.03,597.39,2.31,0000 0000 0000 0000 000000
2016-07-09 01:57:45,-0.00,0.01,0.00,19.29,25.40,29.13,14.68,47.03,1005.87,2046.99,3585.83,3156.07,3583.63,599.82,597.08,2.36,0000 0000 0000 0000 000000
2016-07-09 02:02:46,0.01,0.01,0.00,19.29,25.40,29.10,14.70,46.93,1005.87,2046.99,3585.70,3156.05,3583.31,600.08,597.33,2.41,0000 0000 0000 0000 000000
2016-07-09 02:07:48,-0.01,0.01,0.00,19.27,25.40,29.07,14.71,46.98,1005.87,2046.99,3585.89,3156.09,3583.46,600.18,597.43,2.46,0000 0000 0000 0000 000000
2016-07-09 02:12:49,0.00,0.01,0.00,19.28,25.39,29.01,14.66,46.83,1005.87,2046.99,3585.84,3156.08,3583.46,599.74,596.99,2.51,0000 0000 0000 0000 000000
2016-07-09 02:17:50,-0.00,0.01,0.00,19.29,25.37,29.00,14.71,46.91,1005.87,2046.99,3585.95,3156.19,3583.47,600.02,597.29,2.56,0000 0000 0000 0000 000000
2016-07-09 02:22:51,-0.00,0.01,0.00,19.27,25.37,29.08,14.65,46.98,1005.87,2046.99,3585.76,3156.16,3583.43,599.91,597.20,2.61,0000 0000 0000 0000 000000
2016-07-09 02:27:52,-0.02,0.01,0.00,19.29,25.37,29.04,14.72,46.95,1005.87,2046.99,3585.96,3156.58,3583.81,600.27,597.44,2.66,0000 0000 0000 0000 000000
2016-07-09 02:32:53,-0.00,0.01,0.00,19.30,25.37,29.08,14.65,46.83,1005.87,2047.00,3585.97,3156.90,3583.95,599.97,597.32,2.71,0000 0000 0000 0000 000000
2016-07-09 02:37:54,-0.00,0.01,0.00,19.30,25.35,29.06,14.66,46.83,1005.87,2047.00,3585.98,3156.92,3583.94,599.92,597.13,2.76,0000 0000 0000 0000 000000
2016-07-09 02:42:55,-0.00,0.01,0.00,19.25,25.35,29.07,14.65,46.89,1005.87,2047.01,3585.97,3156.95,3583.95,599.80,597.06,2.81,0000 0000 0000 0000 000000
2016-07-09 02:47:56,0.00,0.01,0.00,19.20,25.35,29.07,14.72,46.98,1005.87,2047.02,3585.98,3156.95,3583.94,600.23,597.62,2.86,0000 0000 0000 0000 000000
2016-07-09 02:52:58,0.00,0.01,0.00,19.20,25.35,29.04,14.63,46.98,1005.87,2047.04,3585.99,3156.97,3583.97,599.95,597.27,2.91,0000 0000 0000 0000 000000
2016-07-09 02:57:59,0.00,0.01,0.00,19.23,25.33,29.05,14.70,46.96,1005.85,2047.03,3585.98,3156.97,3583.96,599.71,596.96,2.96,0000 0000 0000 0000 000000
2016-07-09 03:03:00,0.00,0.01,0.00,19.20,25.32,29.05,14.74,46.96,1005.84,2047.07,3585.97,3156.98,3583.96,600.28,597.73,3.01,0000 0000 0000 0000 000000
2016-07-09 03:08:02,0.01,0.01,0.00,19.24,25.32,29.02,14.67,46.89,1005.87,2047.15,3585.98,3156.98,3583.98,599.74,597.12,3.06,0000 0000 0000 0000 000000
2016-07-09 03:13:03,-0.00,0.01,0.00,19.21,25.32,29.03,14.70,46.84,1005.86,2047.21,3585.99,3156.99,3583.98,599.77,597.14,3.11,0000 0000 0000 0000 000000
2016-07-09 03:18:05,0.01,0.01,0.00,19.20,25.31,29.00,14.69,47.06,1005.86,2047.18,3585.99,3156.97,3583.98,600.09,597.39,3.16,0000 0000 0000 0000 000000
2016-07-09 03:23:06,0.03,0.01,0.00,19.20,25.30,29.02,14.64,46.97,1005.87,2047.48,3585.97,3156.99,3583.98,599.55,596.97,3.21,0000 0000 0000 0000 000000
2016-07-09 03:28:07,0.01,0.01,0.00,19.20,25.30,28.97,14.74,46.86,1005.87,2047.60,3585.96,3156.99,3583.98,600.31,597.72,3.26,0000 0000 0000 0000 000000
2016-07-09 03:33:08,0.01,0.01,0.00,19.23,25.30,29.00,14.67,47.06,1005.87,2047.82,3585.97,3156.99,3583.99,599.87,597.19,3.31,0000 0000 0000 0000 000000
2016-07-09 03:38:09,0.01,0.01,0.00,19.25,25.29,29.01,14.66,47.00,1005.87,2047.89,3585.98,3156.99,3583.99,600.01,597.31,3.36,0000 0000 0000 0000 000000
2016-07-09 03:43:11,-0.00,0.01,0.00,19.25,25.28,28.98,14.67,47.23,1005.87,2047.89,3585.98,3156.99,3583.98,600.03,597.34,3.41,0000 0000 0000 0000 000000
2016-07-09 03:48:12,0.00,0.01,0.00,19.20,25.27,29.01,14.70,47.02,1005.86,2047.87,3585.98,3156.99,3583.98,600.04,597.31,3.46,0000 0000 0000 0000 000000
2016-07-09 03:53:13,0.00,0.01,0.00,19.21,25.27,29.00,14.66,47.00,1005.86,2047.93,3585.99,3156.99,3583.99,599.98,597.35,3.51,0000 0000 0000 0000 000000
2016-07-09 03:58:14,-0.00,0.01,0.00,19.22,25.27,28.97,14.59,47.06,1005.84,2047.93,3586.00,3156.99,3583.99,599.48,596.78,3.56,0000 0000 0000 0000 000000
2016-07-09 04:03:16,0.00,0.01,0.00,19.20,25.27,28.99,14.62,46.95,1005.86,2047.93,3586.02,3156.99,3583.99,599.99,597.42,3.61,0000 0000 0000 0000 000000
2016-07-09 04:08:17,0.00,0.01,0.00,19.21,25.27,28.95,14.67,47.08,1005.87,2047.95,3586.01,3157.01,3583.99,600.28,597.57,3.66,0000 0000 0000 0000 000000
2016-07-09 04:13:19,0.00,0.01,0.00,19.22,25.27,28.96,14.69,47.02,1005.87,2047.96,3586.00,3157.00,3583.99,599.76,597.09,3.71,0000 0000 0000 0000 000000
2016-07-09 04:18:21,-0.00,0.01,0.00,19.19,25.27,28.93,14.65,47.09,1005.87,2047.92,3586.00,3157.00,3583.99,599.80,597.21,3.76,0000 0000 0000 0000 000000
2016-07-09 04:23:22,0.00,0.01,0.00,19.20,25.26,28.90,14.63,47.10,1005.85,2047.90,3585.99,3157.00,3583.98,599.55,597.11,3.81,0000 0000 0000 0000 000000
2016-07-09 04:28:23,-0.00,0.01,0.00,19.14,25.25,28.95,14.69,47.22,1005.74,2047.90,3585.99,3157.00,3583.98,599.97,597.48,3.86,0000 0000 0000 0000 000000
2016-07-09 04:33:25,-0.00,0.01,0.00,19.17,25.25,28.97,14.68,47.22,1005.86,2047.93,3585.99,3157.00,3583.99,600.29,597.76,3.91,0000 0000 0000 0000 000000
2016-07-09 04:38:26,0.00,0.01,0.00,19.21,25.25,28.97,14.71,47.27,1005.87,2047.92,3585.99,3157.00,3583.99,599.96,597.35,3.96,0000 0000 0000 0000 000000
2016-07-09 04:43:27,0.00,0.01,0.00,19.21,25.25,28.96,14.57,46.98,1005.87,2047.95,3585.99,3157.00,3583.98,599.53,597.00,4.01,0000 0000 0000 0000 000000
2016-07-09 04:48:28,-0.00,0.01,0.00,19.19,25.25,28.95,14.76,47.17,1005.87,2047.93,3585.99,3157.00,3583.98,600.43,597.69,4.06,0000 0000 0000 0000 000000
2016-07-09 04:53:29,0.00,0.01,0.00,19.25,25.25,28.97,14.61,47.09,1005.87,2047.95,3585.99,3157.00,3583.98,599.67,596.89,4.11,0000 0000 0000 0000 000000
2016-07-09 04:58:31,0.00,0.01,0.00,19.21,25.25,28.96,14.72,47.17,1005.86,2047.94,3585.99,3157.00,3583.96,600.37,597.78,4.16,0000 0000 0000 0000 000000
2016-07-09 05:03:32,0.00,0.01,0.00,19.28,25.24,28.94,14.62,47.01,1005.87,2047.98,3585.99,3157.00,3583.98,599.89,597.26,4.21,0000 0000 0000 0000 000000
2016-07-09 05:08:33,0.00,0.01,0.00,19.30,25.23,28.93,14.63,47.08,1005.87,2047.98,3585.98,3157.00,3583.98,599.61,596.65,4.26,0000 0000 0000 0000 000000
2016-07-09 05:13:34,0.01,0.01,0.00,19.31,25.22,28.95,14.67,47.02,1005.87,2047.98,3585.69,3156.92,3583.74,600.07,597.22,4.32,0000 0000 0000 0000 000000
2016-07-09 05:18:36,0.03,0.01,0.00,19.32,25.22,28.93,14.69,47.12,1005.87,2047.97,3584.91,3156.12,3583.02,600.06,597.28,4.37,0000 0000 0000 0000 000000
2016-07-09 05:23:37,0.02,0.02,0.00,19.29,25.22,28.94,14.63,47.06,1005.89,2047.99,3584.21,3155.99,3582.83,599.82,597.17,4.42,0000 0000 0000 0000 000000
2016-07-09 05:28:38,0.01,0.02,0.00,19.32,25.22,28.91,14.65,47.03,1005.88,2047.99,3584.00,3155.87,3582.09,599.87,596.87,4.47,0000 0000 0000 0000 000000
2016-07-09 05:33:40,0.01,0.02,0.00,19.34,25.22,28.91,14.71,46.86,1005.88,2047.98,3583.96,3155.24,3581.99,600.24,597.37,4.52,0000 0000 0000 0000 000000
2016-07-09 05:38:41,0.02,0.02,0.00,19.34,25.22,28.92,14.71,46.93,1005.87,2047.99,3583.46,3155.00,3581.73,599.99,597.14,4.57,0000 0000 0000 0000 000000
2016-07-09 05:43:42,0.01,0.02,0.00,19.36,25.22,28.93,14.73,47.05,1005.87,2047.99,3583.05,3155.00,3581.10,600.49,597.49,4.62,0000 0000 0000 0000 000000
2016-07-09 05:48:43,0.02,0.02,0.00,19.32,25.21,28.91,14.63,46.97,1005.87,2047.99,3583.00,3154.39,3580.92,599.68,596.77,4.67,0000 0000 0000 0000 000000
2016-07-09 05:53:44,0.03,0.02,0.00,19.31,25.21,28.86,14.68,46.96,1005.87,2047.99,3582.62,3154.01,3580.16,600.26,597.44,4.72,0000 0000 0000 0000 000000
2016-07-09 05:58:45,0.05,0.02,0.00,19.36,25.20,28.88,14.70,46.95,1005.88,2047.99,3581.68,3153.32,3579.52,600.15,597.18,4.77,0000 0000 0000 0000 000000
2016-07-09 06:03:47,0.03,0.03,0.00,19.38,25.20,28.90,14.68,46.98,1005.87,2047.99,3581.01,3152.65,3578.56,600.08,597.16,4.82,0000 0000 0000 0000 000000
2016-07-09 06:08:48,0.03,0.03,0.00,19.39,25.20,28.92,14.68,47.01,1005.87,2047.99,3580.36,3152.03,3577.99,599.96,596.93,4.87,0000 0000 0000 0000 000000
2016-07-09 06:13:50,0.03,0.03,0.00,19.37,25.20,28.91,14.73,46.96,1005.87,2047.99,3579.94,3151.57,3577.25,600.61,597.68,4.92,0000 0000 0000 0000 000000
2016-07-09 06:18:51,0.03,0.03,0.00,19.39,25.20,28.91,14.65,47.00,1005.87,2047.99,3579.16,3151.01,3576.58,599.86,596.88,4.97,0000 0000 0000 0000 000000
2016-07-09 06:23:52,0.02,0.03,0.00,19.42,25.20,28.86,14.59,47.01,1005.87,2047.99,3578.96,3150.49,3576.01,599.72,596.58,5.02,0000 0000 0000 0000 000000
2016-07-09 06:28:53,0.03,0.03,0.00,19.34,25.20,28.88,14.70,46.93,1005.87,2047.99,3578.27,3150.01,3575.56,600.09,597.07,5.07,0000 0000 0000 0000 000000
2016-07-09 06:33:55,0.01,0.03,0.00,19.36,25.20,28.90,14.64,46.99,1005.87,2047.99,3577.98,3149.68,3574.98,599.97,597.02,5.12,0000 0000 0000 0000 000000
2016-07-09 06:38:56,0.03,0.04,0.00,19.35,25.20,28.88,14.64,46.84,1005.87,2047.99,3577.38,3149.05,3574.32,600.15,597.25,5.17,0000 0000 0000 0000 000000
2016-07-09 06:43:57,0.00,0.04,0.00,19.32,25.20,28.87,14.61,46.78,1005.87,2047.99,3577.02,3148.99,3574.01,599.65,596.85,5.22,0000 0000 0000 0000 000000
2016-07-09 06:48:58,0.01,0.04,0.00,19.34,25.20,28.81,14.63,46.82,1005.87,2047.99,3576.98,3148.83,3573.92,599.87,597.01,5.27,0000 0000 0000 0000 000000
2016-07-09 06:53:59,0.04,0.04,0.00,19.30,25.20,28.88,14.73,47.06,1005.87,2047.99,3576.45,3148.12,3573.26,600.28,597.52,5.32,0000 0000 0000 0000 000000
2016-07-09 06:59:01,0.00,0.04,0.00,19.31,25.20,28.89,14.64,47.12,1005.87,2047.99,3576.01,3147.99,3572.98,599.87,597.04,5.37,0000 0000 0000 0000 000000
2016-07-09 07:04:02,0.04,0.04,0.00,19.33,25.20,28.90,14.63,46.98,1005.87,2047.99,3575.55,3147.40,3572.19,599.84,596.94,5.42,0000 0000 0000 0000 000000
2016-07-09 07:09:03,0.01,0.04,0.00,19.31,25.20,28.90,14.59,46.91,1005.87,2047.99,3575.00,3146.98,3571.72,600.20,597.30,5.47,0000 0000 0000 0000 000000
2016-07-09 07:14:04,0.04,0.04,0.00,19.33,25.20,28.87,14.69,47.01,1005.87,2047.99,3574.26,3146.25,3571.00,599.95,597.03,5.52,0000 0000 0000 0000 000000
2016-07-09 07:19:06,0.03,0.05,0.00,19.33,25.20,28.89,14.68,47.02,1005.87,2047.99,3573.80,3145.70,3570.17,600.22,597.23,5.57,0000 0000 0000 0000 000000
2016-07-09 07:24:07,0.03,0.05,0.00,19.34,25.20,28.89,14.61,47.17,1005.85,2047.98,3572.99,3144.96,3569.28,599.91,597.02,5.62,0000 0000 0000 0000 000000
2016-07-09 07:29:08,0.05,0.05,0.00,19.30,25.20,28.90,14.64,47.01,1005.82,2047.97,3572.09,3144.11,3568.31,599.91,597.16,5.67,0000 0000 0000 0000 000000
2016-07-09 07:34:10,0.04,0.05,0.00,19.30,25.21,28.90,14.67,46.98,1005.65,2047.96,3571.50,3143.54,3567.63,599.90,596.98,5.72,0000 0000 0000 0000 000000
2016-07-09 07:39:11,0.01,0.05,0.00,19.27,25.22,28.85,14.65,47.09,1005.73,2047.97,3570.96,3143.00,3566.99,599.95,597.12,5.77,0000 0000 0000 0000 000000
2016-07-09 07:44:12,0.04,0.06,0.00,19.31,25.22,28.91,14.60,46.99,1005.80,2047.97,3570.17,3142.33,3566.18,599.54,596.72,5.82,0000 0000 0000 0000 000000
2016-07-09 07:49:13,0.03,0.06,0.00,19.33,25.22,28.88,14.74,47.20,1005.75,2047.97,3569.73,3141.84,3565.53,600.13,597.08,5.87,0000 0000 0000 0000 000000
2016-07-09 07:54:14,0.02,0.06,0.00,19.34,25.22,28.88,14.70,46.92,1005.65,2047.95,3569.05,3141.08,3564.84,600.18,597.22,5.92,0000 0000 0000 0000 000000
2016-07-09 07:59:16,0.00,0.06,0.00,19.33,25.22,28.86,14.64,47.23,1005.55,2047.89,3568.99,3140.98,3564.10,599.85,596.76,5.97,0000 0000 0000 0000 000000
2016-07-09 08:04:17,0.04,0.06,0.00,19.35,25.23,28.86,14.65,47.15,1005.76,2047.95,3568.30,3140.45,3563.99,599.82,596.83,6.02,0000 0000 0000 0000 000000
2016-07-09 08:09:18,0.01,0.06,0.00,19.33,25.24,28.89,14.72,47.25,1005.73,2047.95,3568.00,3140.02,3563.48,600.47,597.45,6.07,0000 0000 0000 0000 000000
2016-07-09 08:14:19,0.00,0.06,0.00,19.31,25.25,28.93,14.73,47.34,1005.86,2047.97,3567.97,3139.98,3563.02,599.73,596.86,6.12,0000 0000 0000 0000 000000
2016-07-09 08:19:20,0.04,0.06,0.00,19.29,25.25,28.87,14.71,47.33,1005.87,2047.96,3567.39,3139.53,3562.57,600.09,597.27,6.17,0000 0000 0000 0000 000000
2016-07-09 08:24:22,0.04,0.07,0.00,19.35,25.25,28.87,14.71,47.15,1005.87,2047.94,3566.52,3138.54,3561.76,600.19,597.41,6.22,0000 0000 0000 0000 000000
2016-07-09 08:29:23,0.02,0.07,0.00,19.36,25.25,28.93,14.69,47.19,1005.87,2047.95,3566.02,3138.03,3561.05,599.89,596.95,6.27,0000 0000 0000 0000 000000
2016-07-09 08:34:24,0.01,0.07,0.00,19.36,25.25,28.96,14.69,47.18,1005.88,2047.97,3565.45,3137.94,3560.98,600.24,597.29,6.32,0000 0000 0000 0000 000000
2016-07-09 08:39:26,0.04,0.07,0.00,19.37,25.25,28.97,14.72,47.09,1005.88,2047.98,3565.01,3137.24,3560.28,599.96,597.01,6.37,0000 0000 0000 0000 000000
2016-07-09 08:44:27,0.01,0.07,0.00,19.36,25.25,28.94,14.59,47.05,1005.87,2047.99,3564.67,3137.00,3560.00,599.82,596.89,6.42,0000 0000 0000 0000 000000
2016-07-09 08:49:28,0.01,0.07,0.00,19.39,25.25,28.91,14.68,47.05,1005.87,2047.99,3564.15,3136.98,3559.90,600.17,597.17,6.47,0000 0000 0000 0000 000000
2016-07-09 08:54:30,0.01,0.07,0.00,19.42,25.25,28.89,14.68,47.19,1005.88,2047.98,3564.14,3136.90,3559.45,600.02,596.95,6.52,0000 0000 0000 0000 000000
2016-07-09 08:59:31,0.02,0.07,0.00,19.48,25.25,28.95,14.73,47.33,1005.88,2047.98,3564.00,3136.16,3559.02,600.11,596.98,6.57,0000 0000 0000 0000 000000
2016-07-09 09:04:33,0.00,0.07,0.00,19.45,25.25,28.92,14.60,46.99,1005.88,2047.98,3563.99,3136.03,3558.99,599.82,596.68,6.62,0000 0000 0000 0000 000000
2016-07-09 09:09:34,0.01,0.07,0.00,19.42,25.25,28.93,14.62,47.13,1005.89,2047.98,3563.85,3135.98,3558.61,599.87,596.87,6.67,0000 0000 0000 0000 000000
2016-07-09 09:14:35,0.03,0.08,0.00,19.45,25.25,28.88,14.67,47.13,1005.90,2047.97,3563.07,3135.32,3558.01,600.24,597.16,6.73,0000 0000 0000 0000 000000
2016-07-09 09:19:36,0.01,0.08,0.00,19.45,25.25,28.95,14.67,47.18,1005.89,2047.97,3562.99,3135.01,3557.40,599.74,596.64,6.78,0000 0000 0000 0000 000000
2016-07-09 09:24:38,0.01,0.08,0.00,19.43,25.25,28.91,14.67,47.17,1005.89,2047.95,3562.69,3135.00,3557.00,600.08,597.04,6.83,0000 0000 0000 0000 000000
2016-07-09 09:29:39,0.00,0.08,0.00,19.44,25.25,28.95,14.66,47.21,1005.92,2047.81,3562.04,3134.78,3556.76,599.90,596.75,6.88,0000 0000 0000 0000 000000
2016-07-09 09:34:40,-0.01,0.08,0.00,19.43,25.25,28.96,14.59,47.02,1005.89,2047.53,3561.99,3134.10,3556.10,599.78,596.74,6.93,0000 0000 0000 0000 000000
2016-07-09 09:39:41,0.00,0.08,0.00,19.44,25.25,28.93,14.68,46.97,1005.91,2047.30,3561.67,3134.00,3555.98,600.31,597.27,6.98,0000 0000 0000 0000 000000
2016-07-09 09:44:42,0.03,0.08,0.00,19.41,25.25,28.90,14.70,47.08,1005.93,2047.57,3561.19,3134.00,3555.94,600.08,597.02,7.03,0000 0000 0000 0000 000000
2016-07-09 09:49:44,0.01,0.08,0.00,19.46,25.25,28.95,14.75,47.17,1005.91,2047.50,3561.01,3133.59,3555.20,600.37,597.30,7.08,0000 0000 0000 0000 000000
2016-07-09 09:54:45,-0.01,0.08,0.00,19.46,25.25,28.95,14.58,46.93,1005.98,2047.31,3560.98,3133.06,3555.00,599.78,596.73,7.13,0000 0000 0000 0000 000000
2016-07-09 09:59:46,-0.00,0.08,0.00,19.47,25.25,28.90,14.69,47.17,1006.04,2047.18,3560.69,3133.01,3554.97,600.47,597.47,7.18,0000 0000 0000 0000 000000
2016-07-09 10:04:47,0.01,0.08,0.00,19.46,25.25,28.93,14.63,47.01,1006.21,2047.12,3560.05,3132.99,3554.46,599.95,596.91,7.23,0000 0000 0000 0000 000000
2016-07-09 10:09:48,0.00,0.08,0.00,19.47,25.25,28.94,14.63,47.11,1006.18,2047.10,3560.02,3132.97,3554.08,599.73,596.85,7.28,0000 0000 0000 0000 000000
2016-07-09 10:14:50,0.00,0.08,0.00,19.45,25.25,28.93,14.66,47.10,1006.17,2047.06,3560.00,3132.96,3554.02,599.90,596.97,7.33,0000 0000 0000 0000 000000
2016-07-09 10:19:51,-0.00,0.08,0.00,19.42,25.25,28.96,14.67,47.07,1006.27,2047.05,3560.00,3132.92,3554.00,600.05,597.33,7.38,0000 0000 0000 0000 000000
2016-07-09 10:24:52,0.00,0.08,0.00,19.38,25.25,28.96,14.68,46.92,1006.31,2047.03,3560.00,3132.64,3554.00,600.03,597.34,7.43,0000 0000 0000 0000 000000
2016-07-09 10:29:54,0.00,0.08,0.00,19.36,25.25,28.97,14.60,46.98,1006.24,2047.05,3560.00,3132.42,3553.99,599.76,597.05,7.48,0000 0000 0000 0000 000000
2016-07-09 10:34:55,0.01,0.08,0.00,19.39,25.25,28.98,14.69,46.93,1006.15,2047.03,3560.00,3132.05,3553.96,599.91,597.09,7.53,0000 0000 0000 0000 000000
2016-07-09 10:39:56,0.00,0.08,0.00,19.39,25.25,28.94,14.63,47.07,1005.96,2047.00,3559.92,3132.02,3553.69,599.99,597.08,7.58,0000 0000 0000 0000 000000
2016-07-09 10:44:57,0.02,0.08,0.00,19.37,25.25,28.94,14.71,47.29,1005.91,2047.01,3559.22,3132.00,3553.06,600.19,597.22,7.63,0000 0000 0000 0000 000000
2016-07-09 10:49:59,0.00,0.08,0.00,19.38,25.24,28.93,14.75,47.12,1005.93,2047.00,3559.01,3131.98,3553.00,600.31,597.29,7.68,0000 0000 0000 0000 000000
2016-07-09 10:55:00,0.01,0.08,0.00,19.38,25.24,28.95,14.69,46.92,1006.06,2047.01,3558.94,3131.78,3552.99,600.27,597.41,7.73,0000 0000 0000 0000 000000
2016-07-09 11:00:01,0.02,0.08,0.00,19.43,25.23,28.96,14.68,46.78,1006.30,2047.05,3558.28,3131.18,3552.92,600.15,597.38,7.78,0000 0000 0000 0000 000000
2016-07-09 11:05:02,0.01,0.09,0.00,19.39,25.22,28.95,14.68,46.68,1006.36,2047.09,3558.07,3131.05,3552.79,600.18,597.43,7.83,0000 0000 0000 0000 000000
2016-07-09 11:10:04,0.01,0.09,0.00,19.39,25.22,28.89,14.67,46.68,1006.36,2047.16,3558.03,3131.03,3552.45,600.19,597.40,7.88,0000 0000 0000 0000 000000
2016-07-09 11:15:05,0.01,0.09,0.00,19.40,25.22,28.91,14.65,46.87,1006.36,2047.15,3558.00,3131.00,3552.04,599.70,597.04,7.93,0000 0000 0000 0000 000000
2016-07-09 11:20:06,0.03,0.09,0.00,19.38,25.22,28.93,14.65,46.79,1006.36,2047.41,3557.97,3130.98,3552.00,599.88,597.21,7.98,0000 0000 0000 0000 000000
2016-07-09 11:25:08,-0.00,0.09,0.00,19.43,25.22,28.91,14.57,46.68,1006.36,2047.57,3557.82,3130.97,3552.00,599.88,597.12,8.03,0000 0000 0000 0000 000000
2016-07-09 11:30:09,0.00,0.09,0.00,19.43,25.21,28.84,14.68,46.87,1006.36,2047.36,3557.31,3130.73,3551.93,600.24,597.50,8.08,0000 0000 0000 0000 000000
2016-07-09 11:35:10,0.04,0.09,0.00,19.36,25.20,28.67,14.68,46.92,1006.36,2047.41,3557.03,3130.12,3551.30,600.07,597.44,8.13,0000 0000 0000 0000 000000
2016-07-09 11:40:11,0.01,0.09,0.00,19.37,25.20,28.65,14.65,46.83,1006.36,2047.52,3557.00,3130.03,3551.01,599.93,597.24,8.18,0000 0000 0000 0000 000000
2016-07-09 11:45:12,-0.02,0.09,0.00,19.41,25.20,28.64,14.65,46.92,1006.36,2047.39,3557.00,3130.01,3551.00,599.77,597.04,8.23,0000 0000 0000 0000 000000
2016-07-09 11:50:14,0.02,0.09,0.00,19.43,25.20,28.72,14.60,46.92,1006.36,2047.44,3556.99,3130.00,3551.00,600.11,597.45,8.28,0000 0000 0000 0000 000000
2016-07-09 11:55:15,0.02,0.09,0.00,19.44,25.20,28.75,14.65,46.99,1006.36,2047.77,3556.99,3130.01,3551.00,600.06,597.30,8.33,0000 0000 0000 0000 000000
2016-07-09 12:00:16,-0.02,0.09,0.00,19.39,25.20,28.81,14.70,46.90,1006.36,2047.55,3556.99,3130.00,3550.99,600.05,597.31,8.38,0000 0000 0000 0000 000000
2016-07-09 12:05:17,-0.01,0.09,0.00,19.40,25.20,28.84,14.66,47.02,1006.36,2047.47,3556.99,3129.99,3550.97,599.99,597.27,8.43,0000 0000 0000 0000 000000
2016-07-09 12:10:18,0.00,0.09,0.00,19.39,25.20,28.91,14.67,46.84,1006.36,2047.35,3556.99,3129.99,3550.83,599.87,597.25,8.48,0000 0000 0000 0000 000000
2016-07-09 12:15:20,-0.01,0.09,0.00,19.37,25.20,28.81,14.66,46.94,1006.36,2047.21,3556.97,3129.98,3550.28,600.04,597.44,8.53,0000 0000 0000 0000 000000
2016-07-09 12:20:21,-0.00,0.09,0.00,19.39,25.20,28.86,14.63,46.79,1006.35,2047.10,3556.77,3129.89,3550.02,599.97,597.37,8.58,0000 0000 0000 0000 000000
2016-07-09 12:25:23,0.02,0.09,0.00,19.37,25.20,28.88,14.71,46.92,1006.35,2047.08,3556.23,3129.38,3550.00,600.09,597.36,8.63,0000 0000 0000 0000 000000
2016-07-09 12:30:24,0.01,0.09,0.00,19.28,25.20,28.88,14.69,46.88,1006.35,2047.05,3556.06,3129.10,3549.95,600.17,597.68,8.68,0000 0000 0000 0000 000000
2016-07-09 12:35:25,0.01,0.09,0.00,19.31,25.20,28.88,14.62,46.83,1006.31,2047.03,3555.95,3128.99,3549.13,599.38,596.93,8.73,0000 0000 0000 0000 000000
2016-07-09 12:40:26,0.00,0.09,0.00,19.34,25.20,28.91,14.65,46.96,1006.26,2047.08,3555.88,3128.97,3549.01,599.90,597.24,8.78,0000 0000 0000 0000 000000
2016-07-09 12:45:28,0.02,0.09,0.00,19.40,25.20,28.85,14.59,46.76,1006.22,2047.07,3555.28,3128.74,3548.99,599.84,596.99,8.83,0000 0000 0000 0000 000000
2016-07-09 12:50:29,0.01,0.09,0.00,19.47,25.20,28.82,14.61,46.88,1006.31,2047.05,3555.01,3128.16,3548.83,599.72,596.98,8.88,0000 0000 0000 0000 000000
2016-07-09 12:55:30,0.01,0.09,0.00,19.53,25.20,28.87,14.58,46.73,1006.34,2047.05,3555.00,3128.01,3548.43,599.99,597.07,8.93,0000 0000 0000 0000 000000
2016-07-09 13:00:31,0.00,0.09,0.00,19.51,25.20,28.90,14.62,46.73,1006.36,2047.05,3554.95,3128.00,3548.05,599.70,596.74,8.98,0000 0000 0000 0000 000000